When you browse on this site, cookies collect data to enhance your experience and personalize the content and advertising you see.
Visit our Privacy Policy to learn more. By continuing to use the site, you agree to this use of cookies and data.

Hourly Weather Rozhdestveno-1

Today, 14 August, Friday

Time Temperature Precipitation Wind Pressure Humidity
00:00 +11°C° 0.2 mm 3 mps 743 mmHg 95%
01:00 +11°C° 0.1 mm 3 mps 743 mmHg 94%
02:00 +11°C° 0.1 mm 3 mps 744 mmHg 94%
03:00 +11°C° 0.1 mm 3 mps 744 mmHg 93%
04:00 +11°C° 0 mm 3 mps 744 mmHg 92%
05:00 +10°C° 0 mm 3 mps 744 mmHg 91%
06:00 +10°C° 0 mm 3 mps 744 mmHg 90%
07:00 +11°C° 0 mm 4 mps 744 mmHg 84%
08:00 +13°C° 0 mm 4 mps 744 mmHg 78%
09:00 +14°C° 0 mm 4 mps 744 mmHg 72%
10:00 +14°C° 0.1 mm 5 mps 744 mmHg 68%
11:00 +15°C° 0.1 mm 5 mps 744 mmHg 64%
12:00 +16°C° 0.1 mm 5 mps 744 mmHg 60%
13:00 +16°C° 0.1 mm 5 mps 744 mmHg 60%
14:00 +16°C° 0.1 mm 5 mps 744 mmHg 60%
15:00 +16°C° 0.1 mm 5 mps 744 mmHg 59%
16:00 +17°C° 0 mm 4 mps 744 mmHg 61%
17:00 +16°C° 0 mm 3 mps 745 mmHg 63%
18:00 +16°C° 0 mm 3 mps 745 mmHg 65%
19:00 +14°C° 0 mm 2 mps 745 mmHg 70%
20:00 +13°C° 0 mm 2 mps 745 mmHg 75%
21:00 +11°C° 0 mm 1 mps 745 mmHg 80%
22:00 +11°C° 0 mm 1 mps 745 mmHg 82%
23:00 +10°C° 0 mm 1 mps 745 mmHg 84%

Tomorrow, 15 August, Saturday

Time Temperature Precipitation Wind Pressure Humidity
00:00 +9°C° 0 mm 2 mps 746 mmHg 86%
01:00 +8°C° 0 mm 2 mps 746 mmHg 88%
02:00 +8°C° 0 mm 2 mps 746 mmHg 89%
03:00 +8°C° 0 mm 2 mps 746 mmHg 91%
04:00 +8°C° 0 mm 2 mps 746 mmHg 91%
05:00 +8°C° 0 mm 2 mps 746 mmHg 92%
06:00 +8°C° 0 mm 2 mps 746 mmHg 92%
07:00 +12°C° 0 mm 2 mps 746 mmHg 85%
08:00 +14°C° 0 mm 2 mps 746 mmHg 78%
09:00 +16°C° 0 mm 3 mps 746 mmHg 71%
10:00 +17°C° 0 mm 3 mps 746 mmHg 67%
11:00 +18°C° 0 mm 3 mps 746 mmHg 62%
12:00 +19°C° 0 mm 3 mps 746 mmHg 57%
13:00 +19°C° 0.2 mm 3 mps 746 mmHg 59%
14:00 +19°C° 0.2 mm 3 mps 746 mmHg 61%
15:00 +19°C° 0.2 mm 3 mps 746 mmHg 63%
16:00 +18°C° 0.3 mm 3 mps 745 mmHg 68%
17:00 +18°C° 0.3 mm 3 mps 745 mmHg 73%
18:00 +17°C° 0.3 mm 2 mps 745 mmHg 79%
19:00 +16°C° 0 mm 2 mps 745 mmHg 83%
20:00 +14°C° 0 mm 2 mps 745 mmHg 87%
21:00 +13°C° 0 mm 2 mps 745 mmHg 91%
22:00 +12°C° 0 mm 2 mps 745 mmHg 91%
23:00 +12°C° 0 mm 2 mps 745 mmHg 91%

Day after tomorrow, 16 August, Sunday

Time Temperature Precipitation Wind Pressure Humidity
00:00 +12°C° 0 mm 1 mps 745 mmHg 91%
01:00 +12°C° 0 mm 1 mps 745 mmHg 91%
02:00 +11°C° 0 mm 1 mps 744 mmHg 91%
03:00 +11°C° 0 mm 1 mps 744 mmHg 91%
04:00 +12°C° 0 mm 1 mps 744 mmHg 91%
05:00 +12°C° 0 mm 1 mps 744 mmHg 91%
06:00 +13°C° 0 mm 2 mps 744 mmHg 91%
07:00 +14°C° 0 mm 2 mps 744 mmHg 90%
08:00 +15°C° 0 mm 2 mps 744 mmHg 89%
09:00 +15°C° 0 mm 2 mps 744 mmHg 88%
10:00 +16°C° 0 mm 2 mps 744 mmHg 84%
11:00 +18°C° 0 mm 2 mps 743 mmHg 81%
12:00 +19°C° 0 mm 2 mps 743 mmHg 78%
13:00 +20°C° 0.1 mm 2 mps 743 mmHg 74%
14:00 +21°C° 0.1 mm 3 mps 743 mmHg 70%
15:00 +22°C° 0.1 mm 3 mps 743 mmHg 66%
16:00 +22°C° 0 mm 3 mps 743 mmHg 68%
17:00 +23°C° 0 mm 2 mps 742 mmHg 70%
18:00 +23°C° 0 mm 2 mps 742 mmHg 71%
19:00 +21°C° 0 mm 2 mps 742 mmHg 78%
20:00 +19°C° 0 mm 2 mps 742 mmHg 84%
21:00 +17°C° 0 mm 3 mps 742 mmHg 91%
22:00 +17°C° 0 mm 3 mps 742 mmHg 92%
23:00 +16°C° 0 mm 3 mps 742 mmHg 93%

17 August, Monday

Time Temperature Precipitation Wind Pressure Humidity
00:00 +16°C° 0 mm 3 mps 742 mmHg 93%
01:00 +16°C° 0 mm 3 mps 742 mmHg 94%
02:00 +14°C° 0 mm 3 mps 742 mmHg 94%
03:00 +14°C° 0 mm 3 mps 742 mmHg 94%
04:00 +14°C° 0 mm 3 mps 742 mmHg 95%
05:00 +14°C° 0 mm 3 mps 742 mmHg 95%
06:00 +14°C° 0 mm 3 mps 742 mmHg 96%
07:00 +16°C° 0 mm 3 mps 742 mmHg 91%
08:00 +18°C° 0 mm 3 mps 742 mmHg 86%
09:00 +19°C° 0 mm 4 mps 742 mmHg 81%
10:00 +21°C° 0.1 mm 4 mps 742 mmHg 75%
11:00 +22°C° 0.1 mm 5 mps 742 mmHg 68%
12:00 +25°C° 0.1 mm 5 mps 742 mmHg 62%
13:00 +25°C° 0.3 mm 5 mps 742 mmHg 63%
14:00 +24°C° 0.3 mm 6 mps 742 mmHg 64%
15:00 +24°C° 0.3 mm 6 mps 741 mmHg 65%
16:00 +23°C° 0.5 mm 5 mps 741 mmHg 69%
17:00 +22°C° 0.5 mm 4 mps 741 mmHg 73%
18:00 +22°C° 0.5 mm 3 mps 741 mmHg 77%
19:00 +20°C° 0 mm 3 mps 742 mmHg 82%
20:00 +19°C° 0 mm 2 mps 742 mmHg 87%
21:00 +17°C° 0 mm 2 mps 742 mmHg 92%
22:00 +16°C° 0 mm 2 mps 742 mmHg 92%
23:00 +16°C° 0 mm 2 mps 742 mmHg 93%

18 August, Tuesday

Time Temperature Precipitation Wind Pressure Humidity
00:00 +15°C° 0 mm 1 mps 742 mmHg 93%
01:00 +14°C° 0 mm 1 mps 743 mmHg 92%
02:00 +14°C° 0 mm 1 mps 743 mmHg 91%
03:00 +13°C° 0 mm 1 mps 743 mmHg 89%
04:00 +13°C° 0 mm 1 mps 743 mmHg 88%
05:00 +13°C° 0 mm 1 mps 743 mmHg 87%
06:00 +13°C° 0 mm 1 mps 743 mmHg 85%
07:00 +14°C° 0 mm 1 mps 743 mmHg 80%
08:00 +16°C° 0 mm 1 mps 743 mmHg 75%
09:00 +18°C° 0 mm 2 mps 743 mmHg 70%
10:00 +19°C° 0 mm 2 mps 743 mmHg 65%
11:00 +20°C° 0 mm 2 mps 743 mmHg 61%
12:00 +23°C° 0 mm 2 mps 743 mmHg 57%
13:00 +23°C° 0 mm 2 mps 743 mmHg 56%
14:00 +23°C° 0 mm 1 mps 743 mmHg 55%
15:00 +24°C° 0 mm 1 mps 743 mmHg 54%
16:00 +23°C° 0 mm 1 mps 742 mmHg 58%
17:00 +23°C° 0 mm 1 mps 742 mmHg 63%
18:00 +21°C° 0 mm 2 mps 742 mmHg 67%
19:00 +20°C° 0 mm 2 mps 742 mmHg 70%
20:00 +18°C° 0 mm 2 mps 742 mmHg 73%
21:00 +17°C° 0 mm 2 mps 742 mmHg 76%
22:00 +16°C° 0 mm 2 mps 742 mmHg 76%
23:00 +16°C° 0 mm 2 mps 742 mmHg 75%

19 August, Wednesday

Time Temperature Precipitation Wind Pressure Humidity
00:00 +16°C° 0 mm 2 mps 742 mmHg 75%
01:00 +15°C° 0 mm 2 mps 742 mmHg 74%
02:00 +15°C° 0 mm 2 mps 742 mmHg 74%
03:00 +15°C° 0 mm 2 mps 742 mmHg 74%
04:00 +15°C° 0.2 mm 2 mps 741 mmHg 77%
05:00 +15°C° 0.2 mm 2 mps 741 mmHg 80%
06:00 +15°C° 0.2 mm 2 mps 741 mmHg 83%
07:00 +16°C° 0.3 mm 2 mps 741 mmHg 83%
08:00 +17°C° 0.3 mm 2 mps 741 mmHg 83%
09:00 +17°C° 0.3 mm 2 mps 741 mmHg 83%
10:00 +19°C° 0.1 mm 2 mps 741 mmHg 79%
11:00 +20°C° 0.1 mm 3 mps 741 mmHg 76%
12:00 +21°C° 0.1 mm 3 mps 741 mmHg 73%
13:00 +21°C° 0.2 mm 3 mps 741 mmHg 72%
14:00 +22°C° 0.2 mm 3 mps 741 mmHg 72%
15:00 +22°C° 0.2 mm 3 mps 740 mmHg 71%
16:00 +22°C° 0.7 mm 3 mps 740 mmHg 74%
17:00 +21°C° 0.7 mm 3 mps 740 mmHg 77%
18:00 +21°C° 0.7 mm 3 mps 740 mmHg 79%
19:00 +20°C° 0.3 mm 3 mps 740 mmHg 83%
20:00 +18°C° 0.3 mm 3 mps 740 mmHg 87%
21:00 +17°C° 0.3 mm 2 mps 740 mmHg 91%
22:00 +17°C° 0 mm 2 mps 740 mmHg 92%
23:00 +16°C° 0 mm 2 mps 740 mmHg 93%
Show more